[[{"header":{"parameterUnit":"m.s-1","parameterCategory":1,"la1":30.2992,"la2":30.254,"lo1":-89.0895,"lo2":-89.0443,"dy":0.0025,"dx":0.0025,"nx":19,"ny":19,"refTime":"2026-05-23T03:00:00:Z","depth":0,"parameterNumber":2,"parameterNumberName":"U-component_of_WINDS"},"data":[0,0,0,-1.7601,-1.7602,-1.7625,-1.7625,-1.7668,-1.7669,0,0,0,0,0,0,0,0,0,0,0,-1.7602,-1.7603,-1.7601,-1.7602,-1.7625,-1.7625,-1.7668,-1.7669,0,0,0,0,0,0,0,0,0,0,0,-1.7602,-1.7602,-1.7603,-1.7602,-1.7625,-1.7625,-1.7668,-1.7646,0,0,0,0,0,0,0,0,0,0,-1.7621,-1.7629,-1.7602,-1.7603,-1.7602,-1.7625,-1.7625,-1.7645,-1.7647,-1.7663,0,-1.7679,0,-1.7674,-1.7672,-1.7673,0,0,0,-1.7597,-1.7627,-1.7626,-1.7603,-1.7603,-1.7625,-1.7613,-1.7646,-1.7649,-1.7667,-1.7679,-1.7681,-1.7675,-1.7673,-1.7673,-1.778,-1.7781,0,0,-1.7596,-1.761,-1.7624,-1.7629,-1.7625,-1.7613,-1.7614,-1.7648,-1.7663,-1.7679,-1.7681,-1.7676,-1.7673,-1.7674,-1.778,-1.7781,0,0,0,-1.7595,-1.761,-1.7608,-1.7627,-1.763,-1.7614,-1.7615,-1.7661,-1.7659,-1.7682,-1.7676,-1.7674,-1.7674,-1.7779,-1.778,-1.7831,0,0,0,-1.7594,-1.761,-1.7608,-1.7617,-1.763,-1.7646,-1.7628,-1.7657,-1.766,-1.7676,-1.7674,-1.7675,-1.7778,-1.7779,-1.7828,-1.7854,0,0,0,-1.7598,-1.761,-1.7616,-1.7618,-1.7628,-1.7645,-1.7645,-1.7657,-1.7657,-1.7673,-1.7675,-1.7777,-1.7779,-1.7825,-1.7849,-1.7886,0,0,0,-1.7606,-1.7662,-1.7617,-1.7677,-1.7628,-1.7676,-1.7644,-1.768,-1.7699,-1.7674,-1.7778,-1.778,-1.7824,-1.7846,-1.7883,-1.792,-1.7937,0,0,-1.7685,-1.7672,-1.7706,-1.7666,-1.7726,-1.7672,-1.7739,-1.7743,-1.7731,-1.7765,-1.7767,-1.7829,-1.7848,-1.7885,-1.8025,-1.8039,0,0,0,-1.7736,-1.7761,-1.7773,-1.7792,-1.7795,-1.7801,-1.7793,-1.7794,-1.7822,-1.7751,-1.7852,-1.7863,-1.7884,-1.7901,-1.7913,-1.793,-1.7788,-1.7788,-1.7788,-1.7869,-1.785,-1.7905,-1.7889,-1.7907,-1.7898,-1.7911,-1.7911,-1.7887,-1.7912,-1.7922,-1.8009,-1.8029,-1.8038,-1.8056,-1.7939,-1.794,-1.794,-1.794,-1.7982,-1.8014,-1.798,-1.8021,-1.8001,-1.8035,-1.8028,-1.801,-1.8039,-1.8,-1.8017,-1.7976,-1.8053,-1.8068,-1.7944,-1.7943,-1.7942,-1.7942,-1.7942,-1.8068,-1.808,-1.8079,-1.8104,-1.8125,-1.8106,-1.8136,-1.8116,-1.8099,-1.8116,-1.8124,-1.8123,-1.812,-1.8121,-1.8121,-1.8122,-1.8122,-1.8122,-1.8122,-1.8156,-1.8154,-1.8181,-1.8189,-1.8198,-1.8208,-1.8198,-1.8207,-1.8211,-1.8195,-1.8195,-1.8169,-1.8064,-1.8038,-1.8127,-1.8126,-1.8126,-1.8125,-1.8125,-1.8279,-1.8248,-1.829,-1.8298,-1.8306,-1.8328,-1.8302,-1.8321,-1.8325,-1.834,-1.831,-1.8235,-1.8221,-1.8212,-1.8191,-1.8314,-1.8314,-1.8314,-1.8314,-1.8351,-1.8342,-1.8379,-1.8395,-1.8408,-1.8388,-1.8436,-1.8429,-1.8417,-1.8419,-1.8398,-1.8367,-1.8359,-1.835,-1.8337,-1.8317,-1.847,-1.847,-1.847,-1.8426,-1.8416,-1.8461,-1.8447,-1.8451,-1.8455,-1.85,-1.8519,-1.8499,-1.8476,-1.8419,-1.8413,-1.8363,-1.8348,-1.8325,-1.8306,-1.8269,0,0]},{"header":{"parameterUnit":"m.s-1","parameterCategory":1,"la1":30.2992,"la2":30.254,"lo1":-89.0895,"lo2":-89.0443,"dy":0.0025,"dx":0.0025,"nx":19,"ny":19,"refTime":"2026-05-23T03:00:00:Z","depth":0,"parameterNumber":3,"parameterNumberName":"V-component_of_WINDS"},"data":[0,0,0,-1.6521,-1.6521,-1.6491,-1.6491,-1.6459,-1.6459,0,0,0,0,0,0,0,0,0,0,0,-1.6535,-1.6535,-1.6521,-1.6521,-1.6491,-1.6491,-1.6459,-1.6459,0,0,0,0,0,0,0,0,0,0,0,-1.6535,-1.6535,-1.6535,-1.6521,-1.6491,-1.6491,-1.6459,-1.6479,0,0,0,0,0,0,0,0,0,0,-1.6507,-1.6525,-1.6535,-1.6535,-1.652,-1.6491,-1.6491,-1.648,-1.6478,-1.6476,0,-1.6476,0,-1.6467,-1.6457,-1.6457,0,0,0,-1.6517,-1.6527,-1.6514,-1.6535,-1.652,-1.6491,-1.6503,-1.6479,-1.6476,-1.6473,-1.6476,-1.6475,-1.6467,-1.6457,-1.6457,-1.646,-1.646,0,0,-1.6518,-1.6533,-1.6516,-1.6513,-1.652,-1.6504,-1.6502,-1.6477,-1.6481,-1.6476,-1.6474,-1.6466,-1.6457,-1.6457,-1.646,-1.646,0,0,0,-1.6526,-1.6534,-1.6522,-1.6515,-1.6509,-1.6504,-1.6501,-1.6482,-1.6477,-1.6473,-1.6466,-1.6457,-1.6457,-1.646,-1.646,-1.6485,0,0,0,-1.6526,-1.6538,-1.6523,-1.6531,-1.651,-1.6495,-1.6507,-1.6479,-1.6475,-1.6466,-1.6457,-1.6456,-1.646,-1.646,-1.6484,-1.6494,0,0,0,-1.6535,-1.6539,-1.6537,-1.6532,-1.652,-1.6496,-1.6489,-1.6478,-1.6471,-1.6457,-1.6456,-1.6459,-1.646,-1.6483,-1.6493,-1.6499,0,0,0,-1.6549,-1.656,-1.6538,-1.6546,-1.652,-1.6511,-1.6489,-1.6481,-1.6472,-1.6457,-1.646,-1.646,-1.6482,-1.6491,-1.6498,-1.6507,-1.6513,0,0,-1.6571,-1.6563,-1.6567,-1.6546,-1.6545,-1.6515,-1.6516,-1.6494,-1.6479,-1.6467,-1.6467,-1.6484,-1.6492,-1.6499,-1.6537,-1.6541,0,0,0,-1.6579,-1.6582,-1.6578,-1.6571,-1.6554,-1.654,-1.6516,-1.6507,-1.6496,-1.6476,-1.6487,-1.6492,-1.6495,-1.6499,-1.6503,-1.6504,-1.6462,-1.6462,-1.6462,-1.6631,-1.6611,-1.6616,-1.6591,-1.6584,-1.6558,-1.655,-1.6533,-1.6515,-1.6518,-1.6515,-1.654,-1.6545,-1.6548,-1.6549,-1.6518,-1.6518,-1.6518,-1.6518,-1.6661,-1.6662,-1.6636,-1.6632,-1.661,-1.6605,-1.6579,-1.6566,-1.6558,-1.6542,-1.6543,-1.6528,-1.6553,-1.6554,-1.652,-1.6519,-1.6519,-1.6519,-1.6519,-1.6694,-1.669,-1.6679,-1.6665,-1.6656,-1.663,-1.6622,-1.6602,-1.6583,-1.6584,-1.6578,-1.6577,-1.6574,-1.6582,-1.6582,-1.6582,-1.6583,-1.6583,-1.6583,-1.6732,-1.6719,-1.6716,-1.6697,-1.6689,-1.6674,-1.6646,-1.6637,-1.6621,-1.6606,-1.6606,-1.6587,-1.656,-1.6553,-1.6584,-1.6584,-1.6584,-1.6583,-1.6583,-1.6771,-1.6758,-1.6754,-1.6745,-1.672,-1.6711,-1.6685,-1.6666,-1.6655,-1.6651,-1.6631,-1.6614,-1.6605,-1.6602,-1.6596,-1.6636,-1.6636,-1.6636,-1.6636,-1.6799,-1.6791,-1.6781,-1.6768,-1.6753,-1.6728,-1.672,-1.6698,-1.6672,-1.6663,-1.6654,-1.6644,-1.6642,-1.6634,-1.663,-1.6625,-1.6671,-1.6671,-1.6671,-1.6821,-1.6811,-1.681,-1.6786,-1.6764,-1.6745,-1.6737,-1.6722,-1.669,-1.6672,-1.6655,-1.6654,-1.6639,-1.6635,-1.6619,-1.6613,-1.6603,0,0]}]]